Weather History for Jacksonville NAS, FL

Change the Weather History Date:

Friday, June 14, 2013

  Actual Average Record
Temperature  
Mean Temperature 82 °F -  
Max Temperature 91 °F 87 °F 102 °F (1998)
Min Temperature 72 °F 72 °F 55 °F (2012)
Cooling Degree Days 16    
Growing Degree Days 32 (Base 50)    
Moisture  
Dew Point 73 °F    
Average Humidity 81    
Maximum Humidity 96    
Minimum Humidity 55    
Precipitation  
Precipitation 0.98 in - - ()
Sea Level Pressure  
Sea Level Pressure 29.86 in    
Wind  
Wind Speed 12 mph (WSW)    
Max Wind Speed 38 mph    
Max Gust Speed 47 mph    
Visibility 7 miles    
Events Fog , Rain , Thunderstorm    
Averages and records for this station are not official NWS values.
T = Trace of Precipitation, MM = Missing Value Source: NWS Daily Summary

Daily Weather History Graph

Daily Weather History Graph

Search for Another Location

Airport:

Trip Planner

Search our weather history database for the weather conditions in past years. The results will help you decide how hot, cold, wet, or windy it might be!

Date:

Astronomy

Jun. 14, 2013 Rise Set
Actual Time 6:24 AM EDT 8:29 PM EDT
Civil Twilight 5:57 AM EDT 8:57 PM EDT
Nautical Twilight 5:23 AM EDT 9:30 PM EDT
Astronomical Twilight 4:47 AM EDT 10:06 PM EDT
Moon 11:38 AM EDT (6/14) No Moon Set
Length of Visible Light 15h 00m
Length of Day
14h 05m
Waxing Crescent, 30% of the Moon is Illuminated
Jun 14
Waxing Crescent
Jun 16
First Quarter
Jun 23
Full
Jun 30
Last Quarter
Jul 8
New

Hourly Weather History & Observations

Time (EDT) Temp. Heat Index Dew Point Humidity Pressure Visibility Wind Dir Wind Speed Gust Speed Precip Events Conditions
12:53 AM 79.0 °F - 73.9 °F 84% 29.88 in 9.0 mi WSW 10.4 mph - N/A   Scattered Clouds
1:51 AM 78.8 °F - 75.2 °F 89% 29.88 in 9.0 mi SW 11.5 mph - N/A   Mostly Cloudy
1:53 AM 79.0 °F - 75.0 °F 88% 29.87 in 9.0 mi SW 11.5 mph - N/A   Mostly Cloudy
2:53 AM 79.0 °F - 75.0 °F 88% 29.83 in 9.0 mi SW 10.4 mph - N/A   Mostly Cloudy
3:53 AM 79.0 °F - 75.0 °F 88% 29.81 in 9.0 mi SW 13.8 mph - N/A   Mostly Cloudy
4:53 AM 79.0 °F - 75.0 °F 88% 29.83 in 10.0 mi SW 11.5 mph - N/A   Mostly Cloudy
5:53 AM 79.0 °F - 75.0 °F 88% 29.86 in 10.0 mi West 9.2 mph - N/A   Overcast
6:38 AM 80.1 °F 85.1 °F 75.0 °F 85% 29.87 in 7.0 mi WSW 9.2 mph - N/A   Mostly Cloudy
6:53 AM 79.0 °F - 75.0 °F 88% 29.86 in 6.0 mi WSW 9.2 mph - N/A   Mostly Cloudy
7:28 AM 79.0 °F - 75.0 °F 88% 29.87 in 6.0 mi SW 12.7 mph - N/A   Mostly Cloudy
7:53 AM 80.1 °F 85.1 °F 75.0 °F 85% 29.87 in 6.0 mi WSW 11.5 mph - N/A   Mostly Cloudy
8:53 AM 81.0 °F 86.7 °F 75.0 °F 82% 29.88 in 8.0 mi West 11.5 mph - N/A   Overcast
9:33 AM 82.0 °F 88.6 °F 75.0 °F 79% 29.89 in 9.0 mi West 11.5 mph - N/A   Overcast
9:53 AM 82.9 °F 90.2 °F 75.0 °F 77% 29.88 in 9.0 mi West 16.1 mph - N/A   Mostly Cloudy
10:53 AM 82.9 °F 89.4 °F 73.9 °F 74% 29.87 in 10.0 mi West 4.6 mph - N/A   Mostly Cloudy
11:43 AM 86.0 °F 93.8 °F 73.9 °F 67% 29.89 in 10.0 mi WSW 9.2 mph - N/A   Mostly Cloudy
11:53 AM 86.0 °F 93.0 °F 73.0 °F 65% 29.87 in 10.0 mi WNW 5.8 mph - N/A   Mostly Cloudy
12:43 PM 89.1 °F 97.0 °F 73.0 °F 59% 29.87 in 10.0 mi West 9.2 mph - N/A   Mostly Cloudy
12:53 PM 88.0 °F 96.5 °F 73.9 °F 63% 29.86 in 10.0 mi SW 8.1 mph - N/A   Mostly Cloudy
1:53 PM 87.1 °F 93.6 °F 72.0 °F 61% 29.85 in 10.0 mi SW 11.5 mph - N/A   Mostly Cloudy
2:53 PM 89.1 °F 96.0 °F 72.0 °F 57% 29.83 in 10.0 mi South 13.8 mph - N/A   Scattered Clouds
3:53 PM 91.0 °F 99.3 °F 73.0 °F 55% 29.81 in 10.0 mi South 16.1 mph - N/A Thunderstorm Thunderstorm
4:22 PM 89.1 °F 98.0 °F 73.9 °F 61% 29.81 in 10.0 mi SW 16.1 mph - 0.00 in Rain , Thunderstorm Light Thunderstorms and Rain
4:29 PM 87.1 °F 98.8 °F 77.0 °F 72% 29.80 in 2.5 mi WSW 16.1 mph - 0.01 in Rain , Thunderstorm Thunderstorms and Rain
4:33 PM 84.9 °F 96.6 °F 78.1 °F 80% 29.82 in 1.8 mi West 13.8 mph - 0.04 in Rain , Thunderstorm Heavy Thunderstorms and Rain
4:37 PM 82.0 °F 88.6 °F 75.0 °F 79% 29.83 in 1.0 mi West 17.3 mph 27.6 mph 0.09 in Rain , Thunderstorm Heavy Thunderstorms and Rain
4:43 PM 80.1 °F 83.2 °F 70.0 °F 71% 29.82 in 4.0 mi Variable 6.9 mph 27.6 mph 0.13 in Rain , Thunderstorm Heavy Thunderstorms and Rain
4:53 PM 78.1 °F - 73.0 °F 84% 29.81 in 4.0 mi East 16.1 mph 29.9 mph 0.15 in Rain , Thunderstorm Thunderstorms and Rain
5:01 PM 75.9 °F - 71.1 °F 85% 29.85 in 2.0 mi NNE 21.9 mph 41.4 mph 0.05 in Rain , Thunderstorm Heavy Thunderstorms and Rain
5:04 PM 75.0 °F - 72.0 °F 90% 29.86 in 0.8 mi NNE 21.9 mph 41.4 mph 0.09 in Rain , Thunderstorm Heavy Thunderstorms and Rain
5:09 PM 72.0 °F - 70.0 °F 93% 29.85 in 0.5 mi East 24.2 mph 41.4 mph 0.16 in Fog , Rain Heavy Rain
5:11 PM 72.0 °F - 70.0 °F 93% 29.86 in 0.2 mi East 38.0 mph 47.2 mph 0.20 in Fog , Rain , Thunderstorm Heavy Thunderstorms and Rain
5:21 PM 73.0 °F - 72.0 °F 96% 29.88 in 2.0 mi SSW 17.3 mph 36.8 mph 0.41 in Rain , Thunderstorm Heavy Thunderstorms and Rain
5:35 PM 73.9 °F - 72.0 °F 93% 29.92 in 0.8 mi SSW 15.0 mph 20.7 mph 0.61 in Rain , Thunderstorm Heavy Thunderstorms and Rain
5:53 PM 73.0 °F - 72.0 °F 96% 29.90 in 2.0 mi South 19.6 mph 28.8 mph 0.71 in Rain , Thunderstorm Thunderstorms and Rain
6:12 PM 73.9 °F - 71.1 °F 91% 29.90 in 3.0 mi Variable 4.6 mph - 0.03 in Rain , Thunderstorm Light Thunderstorms and Rain
6:25 PM 73.0 °F - 70.0 °F 90% 29.87 in 2.0 mi West 5.8 mph - 0.10 in Rain , Thunderstorm Heavy Thunderstorms and Rain
6:38 PM 73.0 °F - 71.1 °F 93% 29.86 in 5.0 mi Variable 3.5 mph - 0.11 in Rain , Thunderstorm Light Thunderstorms and Rain
6:53 PM 75.0 °F - 70.0 °F 84% 29.86 in 6.0 mi WSW 21.9 mph 25.3 mph 0.12 in Rain , Thunderstorm Light Thunderstorms and Rain
7:30 PM 73.0 °F - 69.1 °F 87% 29.86 in 10.0 mi NNW 4.6 mph - 0.00 in   Mostly Cloudy
7:53 PM 75.0 °F - 71.1 °F 87% 29.88 in 10.0 mi NE 4.6 mph - 0.00 in   Mostly Cloudy
8:53 PM 78.1 °F - 72.0 °F 81% 29.91 in 10.0 mi NE 8.1 mph - N/A   Scattered Clouds
9:53 PM 75.9 °F - 72.0 °F 87% 29.93 in 10.0 mi NE 5.8 mph - N/A   Scattered Clouds
10:53 PM 75.9 °F - 71.1 °F 85% 29.94 in 10.0 mi NE 8.1 mph - N/A   Scattered Clouds
11:53 PM 75.9 °F - 72.0 °F 87% 29.95 in 10.0 mi ENE 4.6 mph - N/A   Scattered Clouds